Location: Brno
(49.2000°N, 16.6330°E)
Time: 19:05:09
(UTC+02:00)

Transit 4A - Pass Details

Date: 26 July 2021
Orbit: 871 x 974 km, 66.8° (Epoch: 16 September)

Event Time Altitude Azimuth Distance (km) Brightness Sun altitude
Rises 10:20:01 0° 324° (NW) 3,471 10.5 46.3°
Reaches altitude 10° 10:22:30 10° 326° (NW) 2,534 9.9 46.7°
Maximum altitude 10:28:21 77° 52° (NE) 912 8.9 47.5°
Drops below altitude 10° 10:34:18 10° 139° (SE) 2,567 11.1 48.3°
Sets 10:36:50 0° 141° (SE) 3,518 11.5 48.7°
